星链-30457 (STARLINK-30457 )

导读

STARLINK-30457是美国太空探索技术公司(SpaceX)于2023年9月20日发射的星链低轨互联网卫星,属于第二代星链V2 Mini卫星。卫星运行在约550千米近地轨道,配备相控阵天线与激光星间链路,可提供更高带宽,支持低时延高速互联网接入,助力全球无缝网络覆盖,还可支持直连手机通信功能,是SpaceX星链星座组网的重要组成部分。

基本信息
目录编号:
57900
目录名称:
STARLINK-30457
国际标识:
2023-146K
轨道中心:
EARTH
卫星名称:
星链-30457
卫星全名:
星链-30457 (STARLINK-30457 )
卫星状态:
在轨 (已飞行1087 天)
发射日期:
2023-09-20 UTC
国别 :
美国 (US)
星等 :
--
该卫星已列入 空间交会检测服务 Space Conjunction Data Service (SCDS) ,当前飞行风险评估等级: 高风险
轨道信息
数据来源 国际轨道数据 AOE轨道数据
星历时间 2026-09-11T14:22:08+0800
11小时前
查看轨道信息
2026-09-10T08:00:00+0800
1天前
查看轨道信息
半长轴 6861.2km 6861.235km
偏心率 0.0001616 0.0002658
轨道倾角 43.004° 43.005°
近地点辐角 265.532° 292.002°
升交点赤经 346.506° 353.657°
平近点角 94.535° 301.250°
近地点 481.954km 481.274km
远地点 484.172km 484.922km
周期 94.267分钟 94.268分钟
每日圈数 15.275756 15.275637
详细信息
固有亮度:
5
最大亮度:
0.3
卫星平台:
Starlink v2.0 mini
覆盖范围:
全球
运营商:
太空探索技术公司
运营商所在国:
美国
制造商(研发单位):
太空探索技术公司
制造商所在国:
美国
使用方式:
暂无
卫星简介
星链(Starlink)计划是由太空探索技术公司(SpaceX)提出的一个巨型低轨卫星互联网星座项目,计划在2019年至2024年间在太空搭建由约1.2万颗卫星组成的“星链”网络,其中1584颗将部署在地球上空550千米处的近地轨道,并从2020年开始工作。该卫星仍在工作。
2D轨道图
3D轨道图
轨道高度分析图
轨道倾角分析图
轨道综合分析图
查看轨道综合分析图
与全量物体交会距离演化趋势
与全量物体交会风险概率演化趋势